Location: Helsinki
(60.1699°N, 24.9384°E)
Time: 23:09:40
(UTC+02:00)

Transit 4A - Pass Details

Date: 05 November 2020
Orbit: 862 x 982 km, 66.8° (Epoch: 30 November)

Event Time Altitude Azimuth Distance (km) Brightness Sun altitude
Rises 20:23:40 0° 305° (NW) 3,694 12.1 -30.9°
Reaches altitude 10° 20:26:16 10° 307° (NW) 2,747 11.2 -31.1°
Enters shadow 20:32:03 69° 341° (NNW) 1,049 8.1 -31.8°
